Location: Cumbre Roja
(10.2766°N, 67.0675°W)
Time: 22:47:13
(UTC+00:00)

Cosmos 1850 Rocket - Pass Details

Date: 18 November 2025
Orbit: 751 x 780 km, 74.0° (Epoch: 14 December)

Event Time Altitude Azimuth Distance (km) Brightness Sun altitude
Rises 22:30:15 0° 183° (S) 3,239 7.5 -7.3°
Reaches altitude 10° 22:32:40 10° 179° (S) 2,308 6.7 -7.8°
Maximum altitude 22:37:47 55° 102° (ESE) 918 4.1 -9.0°
Drops below altitude 10° 22:42:50 10° 25° (NNE) 2,288 6.1 -10.2°
Sets 22:45:14 0° 21° (NNE) 3,208 6.8 -10.8°
Enters shadow 22:45:26 -1° 20° (NNE) 3,286 6.9 -10.8°
